Temp
-9 -9 -9 -8 -8 -9 -9 -10 -10 -11 -10 -10 -10 -10 -10 -10 -10 -10 -11 -11 -10 -10 -10 -9 -9 -9 -9 -9 -9 -8 -9 -9 -8 -8 -7 -8 -7 -7 -7 -7 -7 -8 -8 -8 -8
-9 -9 -8 -8 -8 -8 -9 -10 -10 -10 -10 -10 -10 -10 -10 -10 -10 -10 -11 -11 -10 -10 -10 -10 -9 -9 -9 -9 -8 -8 -8 -8 -8 -8 -7 -7 -7 -7 -7 -7 -7 -8 -8 -8 -8
-8 -8 -8 -8 -8 -9 -9 -9 -10 -10 -10 -10 -10 -10 -10 -10 -10 -10 -10 -11 -10 -10 -10 -10 -9 -9 -9 -9 -8 -8 -8 -8 -8 -7 -7 -7 -7 -7 -7 -7 -8 -7 -8 -8 -8
-8 -8 -8 -9 -9 -9 -9 -9 -9 -9 -9 -10 -10 -10 -10 -10 -10 -10 -10 -11 -10 -10 -10 -10 -10 -9 -9 -9 -8 -8 -8 -7 -7 -7 -7 -7 -7 -7 -8 -7 -7 -7 -7 -7 -7
-9 -9 -9 -9 -9 -9 -9 -9 -9 -9 -9 -9 -10 -10 -10 -10 -10 -10 -10 -10 -11 -10 -10 -10 -9 -9 -9 -8 -8 -8 -7 -7 -7 -7 -7 -8 -8 -7 -7 -7 -7 -7 -7 -7 -7
-9 -9 -9 -9 -9 -9 -9 -9 -9 -9 -9 -9 -9 -10 -10 -10 -10 -10 -10 -10 -10 -10 -10 -9 -9 -9 -8 -8 -7 -7 -7 -7 -7 -8 -8 -8 -7 -7 -7 -7 -7 -7 -7 -7 -7
-9 -9 -9 -9 -9 -9 -9 -9 -9 -9 -9 -9 -9 -9 -9 -9 -9 -9 -9 -10 -10 -10 -9 -9 -8 -8 -8 -7 -7 -7 -7 -7 -8 -8 -7 -7 -7 -7 -7 -7 -7 -7 -7 -7 -7
-9 -9 -9 -9 -9 -9 -9 -9 -9 -9 -9 -9 -9 -9 -9 -9 -9 -9 -9 -9 -9 -9 -9 -8 -8 -8 -8 -7 -7 -7 -7 -7 -7 -7 -7 -7 -7 -7 -7 -7 -7 -7 -7 -7 -7
-8 -9 -9 -9 -9 -9 -9 -9 -9 -9 -9 -9 -9 -8 -9 -9 -9 -9 -9 -9 -9 -9 -9 -8 -8 -8 -7 -7 -7 -7 -7 -7 -7 -7 -7 -7 -7 -7 -7 -6 -6 -6 -6 -6 -6
-8 -9 -9 -9 -9 -9 -9 -9 -9 -9 -9 -9 -8 -8 -8 -8 -8 -8 -8 -8 -8 -9 -9 -8 -8 -8 -7 -7 -7 -7 -7 -7 -7 -7 -7 -7 -7 -6 -6 -6 -6 -6 -6 -6 -6
-8 -8 -9 -9 -9 -9 -9 -9 -9 -8 -8 -8 -8 -8 -8 -8 -8 -8 -8 -8 -8 -8 -8 -8 -8 -8 -8 -8 -7 -7 -7 -7 -7 -7 -7 -6 -6 -6 -6 -6 -6 -6 -6 -6 -6
-8 -8 -8 -9 -9 -9 -9 -9 -8 -8 -8 -8 -8 -8 -8 -8 -8 -8 -8 -8 -8 -8 -8 -8 -8 -8 -8 -8 -7 -7 -7 -7 -7 -6 -6 -6 -6 -6 -6 -6 -6 -6 -5 -5 -5
-9 -8 -8 -8 -9 -8 -8 -8 -8 -8 -8 -8 -8 -8 -8 -8 -8 -8 -8 -8 -8 -8 -8 -8 -8 -8 -7 -7 -7 -7 -7 -7 -6 -6 -6 -6 -6 -6 -5 -5 -5 -5 -5 -5 -5
-8 -8 -8 -8 -8 -8 -8 -8 -8 -8 -8 -8 -8 -7 -7 -8 -8 -7 -7 -7 -7 -7 -7 -7 -7 -7 -7 -7 -7 -7 -7 -6 -6 -6 -6 -5 -5 -5 -5 -5 -5 -5 -5 -5 -5
-8 -8 -8 -8 -8 -8 -8 -8 -8 -8 -8 -8 -8 -8 -8 -8 -8 -8 -7 -7 -7 -7 -7 -7 -7 -7 -7 -7 -7 -6 -6 -6 -6 -5 -5 -5 -5 -5 -5 -5 -5 -5 -5 -5 -5
-7 -8 -8 -8 -8 -8 -8 -8 -9 -9 -8 -8 -8 -8 -8 -8 -8 -8 -7 -7 -7 -7 -7 -7 -7 -7 -7 -7 -6 -6 -6 -5 -5 -5 -5 -5 -5 -5 -5 -5 -5 -5 -5 -5 -5
-7 -7 -8 -8 -8 -8 -8 -8 -8 -8 -9 -9 -9 -8 -8 -8 -8 -8 -7 -7 -7 -7 -7 -7 -7 -7 -7 -6 -6 -6 -5 -5 -5 -5 -5 -5 -5 -5 -5 -5 -5 -5 -5 -5 -5
-7 -7 -7 -7 -8 -8 -8 -8 -7 -8 -9 -9 -9 -9 -8 -8 -8 -8 -7 -7 -7 -7 -7 -7 -7 -6 -6 -6 -5 -6 -6 -5 -5 -5 -5 -5 -5 -5 -5 -5 -5 -5 -5 -5 -5
-7 -7 -7 -7 -7 -8 -8 -8 -7 -8 -9 -9 -9 -9 -8 -8 -8 -8 -8 -7 -7 -7 -7 -7 -6 -6 -6 -6 -5 -5 -6 -6 -5 -5 -5 -5 -5 -5 -5 -5 -5 -5 -5 -5 -5
-7 -7 -7 -7 -7 -6 -6 -7 -7 -8 -9 -9 -8 -8 -9 -8 -8 -8 -7 -7 -7 -7 -6 -6 -6 -6 -5 -6 -6 -6 -6 -6 -6 -6 -5 -5 -5 -5 -5 -5 -5 -5 -5 -5 -5
-7 -7 -7 -7 -7 -6 -6 -6 -7 -7 -8 -9 -9 -8 -9 -9 -8 -8 -7 -7 -7 -7 -6 -6 -6 -6 -6 -5 -6 -6 -6 -6 -6 -5 -5 -5 -5 -5 -5 -5 -5 -5 -5 -5 -5
-7 -7 -7 -7 -7 -6 -6 -6 -7 -7 -7 -8 -8 -8 -8 -8 -8 -8 -7 -8 -7 -7 -6 -6 -6 -5 -6 -6 -5 -6 -6 -5 -5 -5 -5 -5 -5 -5 -5 -6 -6 -6 -6 -6 -6
-8 -8 -7 -8 -7 -7 -6 -6 -6 -6 -6 -7 -8 -8 -8 -8 -7 -8 -7 -7 -7 -7 -6 -6 -5 -6 -6 -6 -6 -5 -6 -5 -5 -5 -5 -5 -5 -6 -6 -6 -6 -6 -6 -6 -6
-9 -8 -7 -7 -7 -7 -7 -6 -6 -6 -6 -6 -7 -7 -7 -7 -7 -7 -7 -7 -7 -7 -7 -6 -6 -6 -6 -6 -6 -6 -6 -6 -5 -5 -5 -5 -6 -6 -6 -6 -6 -6 -6 -6 -6
-9 -8 -7 -7 -7 -7 -7 -7 -6 -6 -6 -6 -6 -6 -7 -7 -7 -7 -7 -7 -7 -7 -7 -6 -6 -6 -6 -6 -6 -6 -6 -5 -5 -5 -5 -5 -5 -6 -6 -6 -6 -6 -6 -6 -6
-9 -9 -8 -7 -7 -7 -7 -7 -7 -6 -7 -7 -6 -7 -7 -8 -8 -8 -8 -8 -7 -7 -6 -6 -6 -6 -6 -6 -6 -5 -5 -5 -5 -5 -5 -5 -5 -6 -6 -6 -6 -6 -6 -6 -7
-10 -10 -9 -8 -8 -8 -7 -7 -7 -8 -7 -7 -7 -7 -7 -7 -9 -9 -9 -8 -8 -7 -7 -6 -6 -6 -6 -6 -6 -5 -5 -5 -5 -5 -5 -5 -6 -7 -7 -6 -6 -6 -6 -6 -7
Height
5881 5880 5879 5878 5880 5881 5882 5884 5886 5887 5890 5891 5892 5893 5893 5893 5892 5890 5889 5886 5883 5882 5881 5881 5881 5882 5883 5885 5888 5890 5893 5894 5895 5898 5903 5907 5910 5912 5915 5917 5918 5919 5920 5920 5920
5882 5881 5880 5879 5880 5881 5883 5884 5886 5888 5889 5892 5893 5894 5894 5894 5893 5891 5891 5888 5885 5883 5882 5882 5882 5883 5884 5886 5888 5890 5892 5894 5897 5900 5904 5907 5911 5913 5916 5918 5919 5920 5921 5922 5922
5881 5882 5881 5881 5881 5882 5883 5884 5886 5888 5890 5891 5893 5894 5895 5895 5894 5893 5892 5890 5887 5884 5883 5883 5884 5884 5885 5886 5889 5891 5893 5895 5898 5901 5906 5909 5911 5914 5917 5918 5920 5922 5923 5924 5924
5881 5881 5881 5882 5882 5883 5883 5884 5886 5888 5890 5892 5893 5894 5895 5895 5896 5894 5893 5892 5889 5887 5885 5885 5885 5886 5887 5888 5890 5892 5894 5898 5901 5905 5908 5911 5913 5916 5918 5920 5921 5923 5924 5925 5925
5880 5881 5881 5881 5883 5883 5884 5884 5886 5888 5890 5892 5893 5894 5895 5896 5896 5895 5895 5893 5891 5890 5888 5888 5888 5889 5890 5891 5893 5896 5899 5902 5906 5908 5911 5913 5915 5918 5919 5921 5923 5924 5925 5926 5926
5879 5880 5880 5881 5881 5883 5884 5885 5885 5887 5889 5891 5893 5893 5895 5896 5896 5895 5895 5895 5894 5893 5892 5892 5892 5894 5895 5896 5898 5901 5903 5907 5909 5911 5913 5915 5917 5919 5921 5922 5924 5925 5926 5926 5926
5878 5878 5879 5880 5880 5881 5883 5884 5885 5886 5888 5890 5891 5893 5894 5896 5896 5896 5896 5896 5896 5895 5895 5896 5897 5898 5899 5901 5903 5905 5907 5909 5912 5914 5915 5917 5919 5920 5922 5923 5925 5926 5927 5927 5927
5878 5877 5876 5878 5879 5880 5881 5883 5884 5886 5887 5888 5890 5891 5893 5894 5895 5896 5897 5897 5898 5898 5898 5898 5900 5902 5903 5904 5906 5908 5910 5912 5914 5915 5917 5918 5920 5921 5923 5924 5925 5926 5927 5927 5927
5876 5876 5874 5875 5877 5878 5879 5881 5883 5884 5885 5886 5888 5889 5891 5893 5894 5895 5897 5898 5899 5899 5900 5900 5902 5904 5905 5906 5908 5910 5912 5913 5915 5916 5917 5919 5920 5922 5923 5924 5925 5927 5927 5927 5927
5874 5874 5873 5872 5873 5876 5877 5879 5881 5882 5883 5884 5886 5889 5889 5891 5892 5894 5896 5898 5899 5900 5901 5902 5902 5904 5905 5907 5909 5911 5912 5913 5915 5917 5918 5919 5920 5922 5923 5924 5926 5926 5927 5927 5928
5873 5872 5872 5871 5871 5873 5875 5876 5879 5881 5880 5882 5884 5885 5886 5888 5890 5892 5894 5896 5898 5899 5901 5902 5903 5904 5905 5907 5908 5910 5912 5913 5915 5916 5918 5919 5920 5922 5923 5925 5925 5926 5927 5927 5928
5871 5870 5870 5870 5869 5870 5872 5874 5875 5878 5878 5879 5880 5882 5883 5884 5886 5889 5891 5894 5896 5897 5899 5901 5902 5903 5905 5907 5908 5910 5911 5913 5915 5916 5918 5919 5920 5921 5923 5924 5925 5926 5927 5928 5929
5869 5868 5867 5867 5868 5868 5869 5871 5872 5874 5875 5876 5877 5878 5880 5882 5883 5886 5888 5890 5893 5895 5897 5899 5901 5902 5904 5906 5907 5909 5910 5912 5914 5916 5918 5919 5921 5922 5923 5924 5925 5926 5927 5928 5929
5864 5865 5865 5864 5866 5865 5866 5867 5869 5870 5872 5874 5873 5875 5877 5878 5880 5882 5885 5888 5890 5892 5895 5897 5899 5900 5902 5905 5907 5908 5910 5912 5914 5916 5918 5919 5921 5921 5923 5924 5925 5926 5927 5928 5928
5858 5859 5861 5861 5862 5864 5864 5863 5864 5866 5867 5870 5870 5873 5874 5876 5878 5880 5881 5884 5887 5890 5893 5896 5897 5899 5901 5903 5905 5907 5909 5911 5913 5915 5916 5918 5919 5921 5922 5924 5925 5926 5927 5927 5928
5852 5853 5854 5856 5857 5858 5860 5860 5860 5861 5861 5864 5866 5868 5869 5872 5874 5876 5879 5881 5884 5887 5889 5892 5894 5896 5898 5900 5903 5905 5908 5910 5912 5914 5915 5916 5919 5920 5921 5922 5923 5924 5925 5926 5926
5846 5846 5847 5848 5851 5853 5854 5856 5856 5855 5858 5860 5862 5863 5865 5867 5869 5872 5875 5878 5881 5884 5887 5888 5891 5893 5895 5898 5900 5903 5906 5909 5911 5912 5914 5915 5917 5918 5919 5920 5922 5923 5923 5924 5924
5838 5839 5840 5840 5842 5844 5847 5851 5851 5854 5852 5854 5856 5858 5860 5862 5865 5868 5871 5874 5878 5881 5882 5884 5888 5889 5893 5896 5898 5901 5904 5906 5908 5910 5911 5912 5914 5917 5917 5919 5920 5921 5921 5922 5921
5829 5830 5831 5833 5834 5834 5836 5841 5848 5850 5850 5849 5851 5852 5855 5857 5859 5862 5866 5869 5872 5875 5877 5880 5883 5886 5889 5892 5896 5899 5902 5904 5906 5907 5909 5911 5913 5914 5915 5916 5917 5918 5919 5919 5919
5816 5819 5821 5824 5827 5825 5825 5833 5839 5843 5845 5845 5846 5849 5850 5852 5854 5857 5860 5865 5867 5869 5871 5876 5879 5882 5885 5888 5892 5896 5899 5902 5903 5904 5906 5908 5909 5912 5913 5914 5915 5916 5916 5916 5916
5801 5806 5811 5811 5817 5818 5817 5823 5831 5835 5838 5840 5841 5844 5846 5847 5849 5852 5856 5859 5862 5864 5868 5872 5875 5880 5881 5885 5888 5891 5894 5897 5898 5900 5902 5905 5908 5908 5910 5911 5911 5912 5911 5911 5911
5785 5790 5798 5800 5801 5807 5811 5814 5823 5826 5830 5832 5835 5837 5840 5842 5844 5847 5852 5853 5857 5858 5863 5866 5869 5873 5876 5880 5882 5885 5889 5891 5894 5898 5898 5900 5903 5904 5905 5906 5906 5906 5906 5906 5906
5766 5772 5779 5786 5784 5794 5803 5803 5809 5817 5821 5825 5827 5830 5833 5835 5838 5842 5844 5847 5850 5853 5855 5860 5863 5867 5871 5874 5877 5881 5885 5886 5888 5889 5891 5893 5899 5899 5899 5900 5900 5901 5901 5901 5901
5746 5752 5760 5766 5774 5778 5787 5793 5795 5806 5810 5813 5819 5822 5825 5827 5831 5835 5838 5840 5843 5845 5848 5851 5856 5861 5866 5868 5871 5874 5876 5878 5878 5879 5887 5888 5892 5892 5892 5893 5894 5895 5895 5896 5895
5723 5732 5739 5743 5759 5763 5768 5777 5784 5789 5797 5801 5806 5812 5817 5819 5822 5826 5830 5832 5834 5836 5840 5842 5848 5853 5857 5859 5862 5864 5867 5869 5871 5876 5876 5883 5882 5885 5885 5886 5887 5889 5889 5890 5889
5698 5710 5716 5721 5731 5744 5747 5760 5768 5775 5780 5789 5792 5798 5803 5808 5813 5817 5818 5821 5823 5827 5829 5834 5839 5842 5846 5848 5851 5853 5856 5859 5863 5865 5871 5875 5878 5880 5878 5880 5881 5881 5882 5883 5882
5674 5682 5691 5695 5702 5717 5733 5739 5747 5755 5763 5770 5775 5781 5788 5796 5798 5803 5805 5808 5812 5817 5820 5824 5828 5833 5836 5838 5839 5839 5849 5853 5857 5859 5865 5863 5878 5866 5868 5869 5872 5872 5874 5874 5873
Wind_Speed
5 4 1 5 7 8 9 12 13 14 12 10 8 4 2 4 6 8 12 12 8 5 3 4 7 9 11 14 15 14 14 14 16 19 20 18 22 21 20 18 15 15 14 12 13
6 4 2 6 9 10 11 11 11 14 13 11 8 5 1 3 5 7 10 13 9 6 4 5 7 10 12 13 14 15 15 17 19 21 21 26 24 22 20 17 15 16 13 12 13
3 3 1 6 8 10 10 10 10 13 14 13 9 5 2 2 4 6 8 12 10 7 7 6 7 8 11 13 14 16 16 17 20 27 28 26 23 21 18 16 15 15 12 13 12
1 2 2 5 7 9 10 10 11 11 13 13 10 6 3 1 2 4 6 10 11 9 9 8 8 9 12 15 17 19 22 27 30 29 27 24 22 20 17 15 15 15 12 12 11
5 3 4 5 7 8 9 10 11 11 13 12 10 7 4 2 1 3 5 8 11 12 12 12 12 14 17 20 24 27 30 30 29 26 24 22 19 17 16 16 15 14 12 10 10
7 7 6 7 8 8 9 10 11 11 13 13 11 9 7 5 3 2 4 7 9 12 13 14 16 19 23 26 28 29 29 28 25 22 20 18 16 16 15 14 14 12 10 9 8
6 8 10 9 10 9 10 10 10 11 12 12 11 11 9 8 5 3 4 6 7 9 12 15 19 21 24 25 26 26 25 23 21 18 17 16 15 15 14 14 12 10 9 8 7
8 7 10 13 11 12 11 11 11 11 11 11 12 11 10 10 8 6 5 5 6 7 11 15 17 20 22 22 22 21 20 19 17 17 16 14 14 14 14 13 12 10 9 7 6
10 8 8 12 14 12 14 13 13 13 13 12 12 12 12 12 11 10 8 7 7 8 10 14 16 18 19 20 19 19 18 17 17 16 15 15 15 14 13 12 11 9 8 7 6
10 10 9 10 14 15 14 15 14 14 14 14 13 12 13 14 14 13 12 10 9 10 11 14 15 16 17 17 18 18 17 16 16 17 17 15 14 14 13 13 12 11 9 7 6
10 10 9 9 13 16 15 14 16 16 17 16 14 13 14 15 15 16 15 14 12 13 14 14 15 16 16 17 17 17 17 17 18 17 16 15 15 15 14 13 11 10 8 7 6
9 10 8 11 12 14 16 15 15 17 19 18 17 17 16 16 16 17 17 17 16 16 16 17 17 17 17 16 17 17 18 18 17 15 16 16 16 16 14 14 12 11 9 8 8
11 10 9 10 12 16 15 17 15 15 16 18 19 19 18 15 16 17 18 19 19 19 19 19 18 18 18 17 17 17 17 16 16 16 17 18 18 17 16 14 13 11 11 10 8
18 14 12 11 12 14 19 20 20 19 19 19 21 21 17 16 16 18 20 20 20 20 20 20 19 19 19 19 19 19 18 17 18 19 19 19 18 17 16 15 14 12 11 9 7
20 19 16 15 14 13 15 20 24 24 24 23 21 19 19 17 17 17 22 22 22 22 22 22 21 21 20 20 20 18 18 19 20 20 21 20 19 18 17 16 15 13 11 9 7
23 23 22 20 18 17 17 17 20 26 28 22 20 21 22 19 19 20 22 23 23 23 23 23 23 22 22 21 20 20 20 21 22 23 21 20 18 18 17 16 15 13 12 11 8
28 28 27 25 23 22 20 20 21 18 19 24 21 20 23 22 23 22 23 26 26 25 25 26 24 25 23 22 21 22 23 23 23 22 20 20 19 17 17 15 13 13 13 11 8
31 33 31 31 29 28 26 22 18 11 14 16 23 23 21 25 24 23 24 27 25 24 26 26 26 26 23 23 24 24 25 25 25 23 21 21 19 17 16 13 12 13 12 11 10
37 35 38 34 33 34 34 29 16 14 14 14 22 22 25 24 27 26 24 24 25 26 28 26 25 25 24 25 27 27 26 27 25 23 21 19 17 17 15 13 14 14 14 13 13
47 43 40 38 37 39 39 34 24 18 18 19 20 22 22 25 26 27 27 26 27 27 28 27 26 27 28 28 28 27 28 26 25 24 22 20 19 16 15 14 14 14 14 15 15
56 52 47 48 43 44 45 39 30 25 23 23 21 19 23 22 25 26 27 28 27 28 27 25 26 29 30 29 29 31 29 28 27 25 24 22 21 19 17 15 15 14 15 16 17
64 61 57 54 55 50 47 47 38 32 29 27 25 23 23 25 24 27 26 29 28 30 28 29 31 32 33 33 34 33 31 30 28 26 26 25 24 23 22 18 15 16 17 18 19
73 68 64 59 63 58 51 52 50 42 38 34 32 31 28 28 27 26 30 31 31 31 32 33 37 34 37 36 35 33 30 31 31 32 30 30 26 26 25 22 19 18 20 20 21
81 81 76 73 69 67 61 60 57 50 46 44 39 38 35 33 32 31 30 33 33 35 35 36 39 38 35 35 35 34 34 35 38 38 31 31 28 27 28 26 24 23 22 21 24
87 88 87 85 74 72 69 67 65 62 56 52 48 44 42 41 39 36 36 36 37 38 39 42 40 39 38 39 39 39 37 38 40 36 37 30 32 32 32 30 29 25 25 24 24
93 92 91 92 86 80 80 74 71 69 65 59 58 52 49 48 44 42 41 42 42 44 45 45 45 43 43 45 43 44 44 44 43 41 35 33 32 28 33 32 31 31 28 26 25
93 92 94 95 94 89 85 84 78 74 72 68 66 64 58 53 52 48 50 49 48 47 49 50 48 47 49 48 49 54 47 45 43 41 35 36 21 36 37 38 36 34 30 29 29
Wind_Direction
358 1 151 177 177 168 171 168 168 171 172 165 163 157 89 37 25 25 24 29 37 58 87 168 163 159 169 172 175 178 181 175 168 166 166 171 159 153 155 156 153 145 136 128 118
7 8 132 157 160 155 159 158 170 173 173 170 173 174 123 37 27 28 26 26 38 60 101 133 164 183 175 171 173 169 163 158 150 154 159 154 152 154 157 156 150 148 135 123 118
50 8 150 153 156 157 158 162 166 174 175 176 182 184 161 26 36 37 34 29 44 65 89 119 142 156 165 173 176 171 166 162 154 148 148 150 153 158 155 157 149 145 130 126 118
297 163 203 188 170 169 168 171 173 178 181 186 186 191 188 29 70 49 43 39 48 68 85 102 125 138 145 150 153 149 145 141 141 144 147 152 155 153 151 149 142 140 130 122 109
246 249 209 208 208 193 184 177 181 185 189 195 199 204 209 200 137 65 57 54 52 71 87 101 113 123 130 132 133 135 137 140 142 146 150 152 151 145 148 147 140 137 128 118 107
250 250 247 223 218 220 209 195 189 193 196 203 209 215 220 200 181 115 82 74 65 77 95 108 117 126 127 130 134 137 141 144 146 148 148 149 149 148 150 148 145 140 134 125 118
288 255 246 243 227 222 223 214 207 201 200 206 212 220 216 199 193 172 125 99 89 89 105 119 128 131 132 134 139 142 145 148 151 153 154 155 155 152 152 152 147 142 138 134 129
310 282 253 242 238 230 228 226 219 217 213 212 218 218 218 212 200 191 169 135 122 117 125 134 139 141 142 144 148 152 156 158 161 163 162 160 160 158 156 153 155 155 149 144 132
304 302 276 244 235 235 231 231 227 223 225 221 224 222 222 225 213 204 193 170 156 153 150 152 155 154 154 159 159 164 167 169 170 171 170 168 169 165 161 161 161 156 151 148 134
297 302 292 249 233 233 234 231 231 229 230 228 229 228 227 228 224 214 208 194 183 179 173 169 169 171 172 172 173 175 178 176 174 174 172 171 172 170 171 170 167 163 160 148 133
287 298 297 267 232 231 234 235 232 231 233 232 236 237 236 233 227 221 216 210 202 194 187 184 181 181 180 180 177 177 177 178 177 177 173 174 175 178 177 174 169 166 157 146 135
275 287 293 282 239 231 234 237 237 236 238 239 240 243 238 233 228 222 218 216 211 204 196 194 189 188 186 181 180 179 179 180 180 176 178 180 183 183 180 174 171 168 156 144 125
264 271 278 282 264 236 233 234 238 242 246 246 243 244 233 227 228 220 216 215 212 207 200 199 192 192 191 190 189 189 187 186 184 185 187 188 189 187 181 176 171 166 152 140 128
280 265 264 264 270 249 238 235 236 242 246 249 240 235 226 225 226 216 213 212 210 209 203 200 200 200 197 196 195 194 194 193 194 196 195 194 189 185 183 179 178 171 166 157 144
276 273 265 261 261 272 251 242 239 241 245 245 247 238 228 228 224 215 212 208 210 208 208 205 206 206 203 203 202 200 201 203 203 200 198 196 190 184 182 184 183 183 179 171 164
270 271 268 260 257 258 261 254 245 240 241 243 244 234 230 225 227 213 209 208 211 210 212 213 212 209 207 206 207 207 209 210 206 203 202 198 196 190 188 184 184 186 185 183 180
270 269 269 266 257 253 252 265 260 257 249 236 235 231 229 226 225 216 208 205 211 211 211 214 212 210 208 209 210 212 213 211 207 204 202 204 203 196 187 184 188 191 197 197 196
274 269 269 269 265 261 252 247 269 265 251 240 232 229 227 225 225 224 213 209 210 212 214 214 213 211 211 213 213 214 213 209 207 205 204 208 203 196 191 199 205 206 211 216 216
269 268 265 264 268 266 266 261 264 255 241 233 228 228 225 222 222 225 220 213 215 215 213 212 213 213 216 216 215 213 215 214 212 210 211 207 206 202 206 219 224 223 226 229 227
268 266 261 268 263 269 273 276 264 250 244 230 223 223 219 221 217 219 215 211 212 212 213 213 213 216 217 218 218 218 218 217 217 218 218 213 213 215 220 228 238 238 236 237 239
264 263 260 265 262 266 273 277 265 258 246 245 236 227 221 219 214 212 208 209 210 215 216 216 221 218 220 221 221 220 220 222 222 224 226 222 221 228 233 237 245 251 250 252 255
263 263 262 261 262 264 268 271 266 260 253 245 245 235 227 227 218 214 209 216 213 217 217 217 221 219 222 222 224 225 225 229 230 230 233 232 229 234 239 244 252 258 261 262 265
260 260 258 256 260 261 262 265 265 261 260 252 243 244 235 231 227 221 215 218 218 222 223 221 224 223 223 224 227 230 231 233 235 235 234 235 233 240 244 251 257 266 268 270 272
256 258 256 257 259 260 260 261 263 261 259 255 248 242 241 234 234 229 225 224 223 225 226 229 229 227 226 228 229 231 231 233 236 235 238 238 237 240 244 250 258 267 271 274 275
253 254 256 255 253 257 258 259 259 262 259 256 253 246 239 240 235 231 231 231 230 228 229 231 231 231 231 231 232 232 233 236 238 241 238 235 238 239 244 251 258 267 274 275 280
249 251 252 254 253 251 255 257 257 258 258 254 253 245 240 239 239 237 233 231 234 233 232 233 232 230 229 233 233 234 235 235 237 240 241 245 240 249 251 253 260 265 271 276 280
245 247 248 250 252 250 251 253 253 251 254 253 250 246 241 236 236 234 234 232 231 234 236 236 236 234 234 235 237 235 234 239 241 243 244 242 234 238 247 253 257 263 271 279 281